Elkins, WV

1:38 AM EDT on September 30, 2016 (GMT -0400)
Elkins-Randolph County

Weather History for KEKN - May, 2013

Change the Weather History Date:

Saturday, May 18, 2013

  Actual Average Record
Temperature  
Mean Temperature 66 °F 59 °F  
Max Temperature 78 °F 71 °F 89 °F (1911)
Min Temperature 54 °F 46 °F 29 °F (1955)
Degree Days  
Heating Degree Days 0 7  
Month to date heating degree days 145 163  
Since 1 July heating degree days 5703 5726  
Cooling Degree Days 1 1  
Month to date cooling degree days 2 5  
Year to date cooling degree days 5 8  
Growing Degree Days 16 (Base 50)    
Moisture  
Dew Point 56 °F    
Average Humidity 71    
Maximum Humidity 100    
Minimum Humidity 42    
Precipitation  
Precipitation T in 0.17 in 1.41 in (2010)
Month to date precipitation 2.81 2.93  
Year to date precipitation 15.39 17.02  
Snow  
Snow 0.00 in - - ()
Month to date snowfall 0.0  
Since 1 September snowfall 77.5  
Snow Depth 0.00 in    
Sea Level Pressure  
Sea Level Pressure 30.14 in    
Wind  
Wind Speed 3 mph (SSW)    
Max Wind Speed 14 mph    
Max Gust Speed 18 mph    
Visibility 7 miles    
Events Fog    
T = Trace of Precipitation, MM = Missing Value Source: NWS Daily Summary

Daily Weather History Graph

Daily Weather History Graph

Search for Another Location

Airport or City:

Trip Planner

Search our weather history database for the weather conditions in past years. The results will help you decide how hot, cold, wet, or windy it might be!

Date:

Astronomy

May. 18, 2013 Rise Set
Actual Time 6:04 AM EDT 8:28 PM EDT
Civil Twilight 5:33 AM EDT 8:58 PM EDT
Nautical Twilight 4:56 AM EDT 9:35 PM EDT
Astronomical Twilight 4:15 AM EDT 10:17 PM EDT
Moon 1:33 PM EDT (5/18) 1:51 AM EDT (5/18)
Length of Visible Light 15h 24m
Length of Day
14h 23m
First Quarter, 55% of the Moon is Illuminated
May 18
First Quarter
May 25
Full
May 31
Last Quarter
Jun 8
New
Jun 16
First Quarter

Hourly Weather History & Observations

Time (EDT) Temp. Dew Point Humidity Pressure Visibility Wind Dir Wind Speed Gust Speed Precip Events Conditions
12:51 AM 57.9 °F 55.0 °F 90% 30.13 in 10.0 mi Calm Calm - N/A   Clear
1:51 AM 57.0 °F 55.0 °F 93% 30.12 in 7.0 mi Calm Calm - N/A   Clear
2:51 AM 57.0 °F 55.0 °F 93% 30.12 in 9.0 mi Calm Calm - N/A   Mostly Cloudy
3:51 AM 57.0 °F 55.0 °F 93% 30.13 in 7.0 mi Calm Calm - N/A   Mostly Cloudy
4:51 AM 55.9 °F 54.0 °F 93% 30.14 in 5.0 mi Calm Calm - N/A   Mostly Cloudy
5:04 AM 55.4 °F 53.6 °F 94% 30.14 in 2.0 mi Calm Calm - N/A   Overcast
5:27 AM 53.6 °F 53.6 °F 100% 30.14 in 4.0 mi Calm Calm - N/A   Mostly Cloudy
5:46 AM 55.4 °F 53.6 °F 94% 30.14 in 5.0 mi Calm Calm - N/A   Mostly Cloudy
5:51 AM 55.0 °F 53.1 °F 93% 30.14 in 8.0 mi Calm Calm - N/A   Mostly Cloudy
6:02 AM 55.4 °F 53.6 °F 94% 30.15 in 1.5 mi Calm Calm - N/A   Overcast
6:07 AM 55.4 °F 53.6 °F 94% 30.15 in 0.5 mi Calm Calm - N/A Fog Fog
6:36 AM 55.4 °F 55.4 °F 100% 30.16 in 0.2 mi Calm Calm - N/A Fog Fog
6:51 AM 55.9 °F 55.0 °F 97% 30.16 in 0.2 mi Calm Calm - N/A Fog Fog
7:26 AM 57.2 °F 55.4 °F 94% 30.17 in 0.5 mi Calm Calm - N/A Fog Fog
7:36 AM 57.2 °F 55.4 °F 94% 30.17 in 0.2 mi Calm Calm - N/A Fog Fog
7:51 AM 57.0 °F 55.9 °F 96% 30.17 in 0.2 mi Calm Calm - N/A Fog Fog
8:01 AM 57.2 °F 57.2 °F 100% 30.17 in 1.0 mi Calm Calm - N/A   Overcast
8:07 AM 57.2 °F 55.4 °F 94% 30.17 in 3.0 mi Calm Calm - N/A   Overcast
8:25 AM 57.2 °F 57.2 °F 100% 30.18 in 7.0 mi Calm Calm - N/A   Overcast
8:51 AM 59.0 °F 57.0 °F 93% 30.17 in 10.0 mi Calm Calm - N/A   Overcast
9:01 AM 60.8 °F 57.2 °F 88% 30.18 in 10.0 mi Calm Calm - N/A   Overcast
9:51 AM 62.1 °F 57.0 °F 84% 30.17 in 10.0 mi Calm Calm - N/A   Overcast
10:51 AM 68.0 °F 59.0 °F 73% 30.15 in 10.0 mi West 3.5 mph - N/A   Overcast
11:51 AM 68.0 °F 60.1 °F 76% 30.15 in 10.0 mi West 3.5 mph - N/A   Overcast
12:51 PM 72.0 °F 60.1 °F 66% 30.14 in 10.0 mi Variable 3.5 mph - N/A   Overcast
1:51 PM 75.9 °F 57.9 °F 54% 30.12 in 10.0 mi SW 9.2 mph - N/A   Mostly Cloudy
2:51 PM 75.9 °F 53.1 °F 45% 30.09 in 10.0 mi South 4.6 mph - N/A   Overcast
3:51 PM 78.1 °F 54.0 °F 43% 30.08 in 10.0 mi South 8.1 mph - N/A   Clear
4:51 PM 75.9 °F 54.0 °F 46% 30.08 in 10.0 mi SSW 8.1 mph - N/A   Mostly Cloudy
5:51 PM 75.9 °F 55.0 °F 48% 30.07 in 10.0 mi SSW 5.8 mph - N/A   Clear
6:51 PM 73.9 °F 57.0 °F 55% 30.09 in 10.0 mi SSE 9.2 mph - N/A   Mostly Cloudy
7:51 PM 69.1 °F 57.0 °F 65% 30.11 in 10.0 mi Calm Calm - 0.00 in   Overcast
8:51 PM 66.9 °F 57.9 °F 73% 30.12 in 10.0 mi SSW 3.5 mph - N/A   Overcast
9:51 PM 63.0 °F 57.9 °F 84% 30.13 in 10.0 mi Calm Calm - N/A   Scattered Clouds
10:51 PM 60.1 °F 57.0 °F 90% 30.13 in 10.0 mi Calm Calm - N/A   Clear
11:51 PM 61.0 °F 57.0 °F 87% 30.13 in 10.0 mi SSW 3.5 mph - N/A   Clear